SCP
2 1 2 4 6 6 7 6 5 8 6 7 8 7 8 5 4 5 5 5 5 3
1 2 2 4 7 5 5 7 9 12 12 6 7 8 8 6 6 6 5 5 6 4
0 1 2 3 5 7 7 6 12 9 3 7 8 7 11 7 5 6 5 4 6 5
1 1 3 3 5 6 6 4 7 1 6 5 5 7 11 7 4 3 4 5 5 3
0 1 1 2 3 3 4 3 2 2 1 2 3 3 4 3 2 1 3 3 2 2
0 0 1 1 2 3 3 2 1 1 1 2 3 3 2 1 1 2 1 2 1 0
0 1 1 1 1 1 1 2 1 1 1 1 1 0 1 1 2 2 1 1 1 0
0 0 0 0 0 1 1 2 2 1 1 1 1 0 1 1 1 2 2 2 0 1
0 0 0 0 0 0 0 1 1 1 2 3 0 0 0 1 1 1 1 1 1 0
0 0 0 0 0 0 0 0 1 1 1 2 2 0 0 0 2 1 1 1 1 1
0 0 0 0 0 0 0 0 0 0 1 2 2 0 0 0 1 2 2 2 1 1
0 0 0 0 0 0 0 0 0 0 1 1 1 1 0 0 1 1 1 2 1 1
0 0 0 0 0 0 0 0 0 0 0 0 0 0 0 0 1 1 2 2 1 0
0 0 0 0 0 0 0 0 0 0 0 0 0 0 0 0 1 1 2 2 2 1
Wind_Speed_500mb
44 47 53 58 70 70 77 88 22 67 71 66 55 61 62 58 54 48 53 54 50 41
42 47 53 60 62 64 76 67 69 70 82 58 56 55 50 50 51 55 52 48 48 43
34 40 47 51 61 65 60 77 55 79 50 43 52 49 51 46 45 48 43 40 45 44
25 28 36 49 54 53 59 71 72 36 43 51 47 46 48 46 43 43 42 42 39 42
20 19 23 23 34 36 35 41 44 50 47 44 43 39 40 39 36 42 40 41 40 42
14 21 21 24 30 27 33 34 41 42 43 44 44 40 43 36 37 38 34 42 37 35
26 17 20 19 23 29 33 32 33 34 33 31 36 40 47 38 38 35 43 40 33 32
33 36 49 47 53 35 25 30 34 43 38 37 40 40 40 35 35 40 44 40 37 35
41 38 33 56 54 60 36 25 29 33 40 37 47 44 38 54 51 54 50 47 46 39
49 47 41 35 55 68 57 43 37 34 35 43 54 55 56 61 65 61 63 62 55 47
55 53 52 46 42 51 70 69 74 57 53 47 52 68 72 70 74 75 67 65 63 60
60 58 55 54 52 52 53 60 63 61 66 79 69 63 71 79 77 80 77 69 68 68
64 64 63 61 59 58 56 58 64 68 70 77 79 70 87 77 82 82 77 78 79 78
72 70 72 71 68 66 64 64 65 66 74 74 71 74 76 71 76 82 74 78 76 83
Wind_Direction_500mb
270 266 261 258 247 244 241 237 256 237 235 223 222 235 232 238 241 242 248 250 248 243
275 265 259 251 254 249 234 237 237 228 228 219 217 219 231 233 236 240 242 247 250 248
281 273 269 262 251 245 238 232 229 210 244 214 216 214 216 223 234 233 239 243 250 251
293 274 268 263 254 254 244 230 223 218 205 212 211 211 208 218 221 240 240 245 247 250
299 281 277 273 258 248 237 225 229 220 215 211 210 211 213 219 224 232 240 242 245 245
309 273 264 305 274 249 233 218 212 215 212 208 204 207 240 218 217 213 233 242 234 236
266 266 282 328 316 269 248 223 219 212 212 208 207 209 214 221 214 210 216 222 217 223
286 276 255 246 273 302 292 252 240 226 226 219 217 212 208 217 204 211 207 209 216 218
276 277 285 245 234 257 279 282 269 254 247 236 231 227 217 215 213 210 212 212 218 222
274 270 269 271 245 240 259 268 267 263 253 248 249 241 237 226 218 218 217 217 216 223
272 269 265 260 255 253 247 257 263 268 269 257 254 241 235 234 228 224 223 223 224 225
268 268 266 261 256 252 254 246 243 247 258 253 252 249 240 238 234 233 229 229 231 232
264 265 264 263 258 252 247 245 239 236 240 247 243 246 248 242 239 238 233 232 233 237
269 272 267 261 261 253 248 245 244 245 245 239 239 242 241 245 235 232 233 232 233 235
Wind_Speed_850mb
44 47 53 58 70 70 77 88 22 67 71 66 55 61 62 58 54 48 53 54 50 41
42 47 53 60 62 64 76 67 69 70 82 58 56 55 50 50 51 55 52 48 48 43
34 40 47 51 61 65 60 77 55 79 50 43 52 49 51 46 45 48 43 40 45 44
25 28 36 49 54 53 59 71 72 36 43 51 47 46 48 46 43 43 42 42 39 42
20 19 23 23 34 36 35 41 44 50 47 44 43 39 40 39 36 42 40 41 40 42
14 21 21 24 30 27 33 34 41 42 43 44 44 40 43 36 37 38 34 42 37 35
26 17 20 19 23 29 33 32 33 34 33 31 36 40 47 38 38 35 43 40 33 32
33 36 49 47 53 35 25 30 34 43 38 37 40 40 40 35 35 40 44 40 37 35
41 38 33 56 54 60 36 25 29 33 40 37 47 44 38 54 51 54 50 47 46 39
49 47 41 35 55 68 57 43 37 34 35 43 54 55 56 61 65 61 63 62 55 47
55 53 52 46 42 51 70 69 74 57 53 47 52 68 72 70 74 75 67 65 63 60
60 58 55 54 52 52 53 60 63 61 66 79 69 63 71 79 77 80 77 69 68 68
64 64 63 61 59 58 56 58 64 68 70 77 79 70 87 77 82 82 77 78 79 78
72 70 72 71 68 66 64 64 65 66 74 74 71 74 76 71 76 82 74 78 76 83
Wind_Direction_850mb
270 266 261 258 247 244 241 237 256 237 235 223 222 235 232 238 241 242 248 250 248 243
275 265 259 251 254 249 234 237 237 228 228 219 217 219 231 233 236 240 242 247 250 248
281 273 269 262 251 245 238 232 229 210 244 214 216 214 216 223 234 233 239 243 250 251
293 274 268 263 254 254 244 230 223 218 205 212 211 211 208 218 221 240 240 245 247 250
299 281 277 273 258 248 237 225 229 220 215 211 210 211 213 219 224 232 240 242 245 245
309 273 264 305 274 249 233 218 212 215 212 208 204 207 240 218 217 213 233 242 234 236
266 266 282 328 316 269 248 223 219 212 212 208 207 209 214 221 214 210 216 222 217 223
286 276 255 246 273 302 292 252 240 226 226 219 217 212 208 217 204 211 207 209 216 218
276 277 285 245 234 257 279 282 269 254 247 236 231 227 217 215 213 210 212 212 218 222
274 270 269 271 245 240 259 268 267 263 253 248 249 241 237 226 218 218 217 217 216 223
272 269 265 260 255 253 247 257 263 268 269 257 254 241 235 234 228 224 223 223 224 225
268 268 266 261 256 252 254 246 243 247 258 253 252 249 240 238 234 233 229 229 231 232
264 265 264 263 258 252 247 245 239 236 240 247 243 246 248 242 239 238 233 232 233 237
269 272 267 261 261 253 248 245 244 245 245 239 239 242 241 245 235 232 233 232 233 235